When you browse on this site, cookies collect data to enhance your experience and personalize the content and advertising you see.
Visit our Privacy Policy to learn more. By continuing to use the site, you agree to this use of cookies and data.
  • In Hungary
  • List of Countries
  • For 7 days
  • Water Temperature
  • Weather Map
  • News
  • Weather Widgets
  • user-avatar
    Login

    Hourly Weather Halle

    Today, 8 December, Sunday

    Time Temperature Precipitation Wind Pressure Humidity
    00:00 +4°C° 0 mm 6 mps 742 mmHg 84%
    01:00 +4°C° 0 mm 6 mps 742 mmHg 86%
    02:00 +4°C° 0 mm 7 mps 741 mmHg 85%
    03:00 +4°C° 0 mm 7 mps 740 mmHg 84%
    04:00 +4°C° 0 mm 7 mps 739 mmHg 82%
    05:00 +4°C° 0 mm 8 mps 738 mmHg 82%
    06:00 +5°C° 0 mm 8 mps 737 mmHg 82%
    07:00 +5°C° 0 mm 8 mps 737 mmHg 81%
    08:00 +6°C° 0.1 mm 9 mps 736 mmHg 82%
    09:00 +6°C° 0.1 mm 9 mps 735 mmHg 82%
    10:00 +7°C° 0.1 mm 10 mps 734 mmHg 82%
    11:00 +7°C° 0.4 mm 10 mps 734 mmHg 83%
    12:00 +7°C° 0.4 mm 10 mps 733 mmHg 84%
    13:00 +8°C° 0.4 mm 10 mps 733 mmHg 85%
    14:00 +7°C° 0.1 mm 9 mps 733 mmHg 81%
    15:00 +7°C° 0.1 mm 8 mps 733 mmHg 77%
    16:00 +6°C° 0.1 mm 7 mps 733 mmHg 73%
    17:00 +6°C° 0 mm 7 mps 733 mmHg 74%
    18:00 +5°C° 0 mm 7 mps 733 mmHg 74%
    19:00 +5°C° 0 mm 6 mps 733 mmHg 75%
    20:00 +5°C° 0 mm 7 mps 733 mmHg 77%
    21:00 +4°C° 0 mm 8 mps 732 mmHg 78%
    22:00 +4°C° 0 mm 8 mps 732 mmHg 79%
    23:00 +4°C° 0.1 mm 8 mps 732 mmHg 79%

    Tomorrow, 9 December, Monday

    Time Temperature Precipitation Wind Pressure Humidity
    00:00 +4°C° 0.1 mm 8 mps 732 mmHg 79%
    01:00 +4°C° 0.1 mm 8 mps 732 mmHg 79%
    02:00 +2°C° 0.1 mm 8 mps 731 mmHg 80%
    03:00 +2°C° 0.1 mm 8 mps 730 mmHg 80%
    04:00 +2°C° 0.1 mm 9 mps 730 mmHg 81%
    05:00 +2°C° 0.2 mm 9 mps 729 mmHg 80%
    06:00 +2°C° 0.2 mm 8 mps 729 mmHg 79%
    07:00 +2°C° 0.2 mm 8 mps 728 mmHg 79%
    08:00 +2°C° 0.5 mm 8 mps 728 mmHg 80%
    09:00 +2°C° 0.5 mm 8 mps 728 mmHg 81%
    10:00 +3°C° 0.5 mm 7 mps 727 mmHg 82%
    11:00 +3°C° 0.8 mm 7 mps 728 mmHg 84%
    12:00 +3°C° 0.8 mm 6 mps 728 mmHg 86%
    13:00 +3°C° 0.8 mm 6 mps 729 mmHg 88%
    14:00 +4°C° 0.1 mm 6 mps 730 mmHg 85%
    15:00 +4°C° 0.1 mm 7 mps 731 mmHg 81%
    16:00 +4°C° 0.1 mm 7 mps 732 mmHg 77%
    17:00 +4°C° 0 mm 7 mps 734 mmHg 76%
    18:00 +3°C° 0 mm 7 mps 736 mmHg 74%
    19:00 +3°C° 0 mm 7 mps 737 mmHg 72%
    20:00 +1°C° 0 mm 8 mps 739 mmHg 72%
    21:00 +1°C° 0 mm 8 mps 740 mmHg 71%
    22:00 +1°C° 0 mm 8 mps 741 mmHg 71%
    23:00 +2°C° 0.1 mm 7 mps 742 mmHg 72%

    Day after tomorrow, 10 December, Tuesday

    Time Temperature Precipitation Wind Pressure Humidity
    00:00 0°C° 0.1 mm 7 mps 743 mmHg 74%
    01:00 +1°C° 0.1 mm 6 mps 745 mmHg 76%
    02:00 +1°C° 0 mm 6 mps 745 mmHg 76%
    03:00 +1°C° 0 mm 6 mps 746 mmHg 76%
    04:00 +1°C° 0 mm 6 mps 747 mmHg 76%
    05:00 +1°C° 0 mm 5 mps 748 mmHg 77%
    06:00 +1°C° 0 mm 5 mps 749 mmHg 78%
    07:00 +1°C° 0 mm 4 mps 749 mmHg 79%
    08:00 0°C° 0 mm 4 mps 750 mmHg 81%
    09:00 0°C° 0 mm 4 mps 750 mmHg 82%
    10:00 0°C° 0 mm 4 mps 750 mmHg 83%
    11:00 +1°C° 0 mm 4 mps 750 mmHg 81%
    12:00 +1°C° 0 mm 4 mps 750 mmHg 79%
    13:00 +2°C° 0 mm 5 mps 750 mmHg 77%
    14:00 +1°C° 0 mm 4 mps 750 mmHg 77%
    15:00 +1°C° 0 mm 4 mps 749 mmHg 77%
    16:00 +1°C° 0 mm 4 mps 749 mmHg 77%
    17:00 0°C° 0 mm 5 mps 748 mmHg 75%
    18:00 0°C° 0 mm 5 mps 748 mmHg 74%
    19:00 -2°C° 0 mm 6 mps 747 mmHg 72%
    20:00 -1°C° 0 mm 6 mps 747 mmHg 68%
    21:00 -1°C° 0 mm 6 mps 746 mmHg 63%
    22:00 -1°C° 0 mm 6 mps 745 mmHg 59%
    23:00 +1°C° 0 mm 6 mps 744 mmHg 57%

    11 December, Wednesday

    Time Temperature Precipitation Wind Pressure Humidity
    00:00 +1°C° 0 mm 6 mps 744 mmHg 55%
    01:00 0°C° 0 mm 7 mps 743 mmHg 53%
    02:00 0°C° 0.6 mm 7 mps 743 mmHg 63%
    03:00 +2°C° 0.6 mm 7 mps 742 mmHg 72%
    04:00 +1°C° 0.6 mm 8 mps 742 mmHg 81%
    05:00 +2°C° 0.2 mm 7 mps 742 mmHg 82%
    06:00 +2°C° 0.2 mm 7 mps 742 mmHg 83%
    07:00 +2°C° 0.2 mm 6 mps 742 mmHg 84%
    08:00 +2°C° 0 mm 6 mps 742 mmHg 85%
    09:00 +2°C° 0 mm 5 mps 742 mmHg 86%
    10:00 +3°C° 0 mm 4 mps 742 mmHg 86%
    11:00 +3°C° 0.1 mm 4 mps 742 mmHg 86%
    12:00 +4°C° 0.1 mm 4 mps 742 mmHg 86%
    13:00 +4°C° 0.1 mm 4 mps 741 mmHg 86%
    14:00 +3°C° 0.4 mm 3 mps 741 mmHg 88%
    15:00 +3°C° 0.4 mm 3 mps 741 mmHg 91%
    16:00 +3°C° 0.4 mm 3 mps 740 mmHg 93%
    17:00 +3°C° 0.1 mm 3 mps 740 mmHg 93%
    18:00 +2°C° 0.1 mm 3 mps 740 mmHg 93%
    19:00 +2°C° 0.1 mm 3 mps 740 mmHg 92%
    20:00 +2°C° 0 mm 3 mps 740 mmHg 92%
    21:00 +2°C° 0 mm 3 mps 740 mmHg 91%
    22:00 0°C° 0 mm 4 mps 740 mmHg 91%
    23:00 0°C° 0 mm 4 mps 739 mmHg 91%

    12 December, Thursday

    Time Temperature Precipitation Wind Pressure Humidity
    00:00 0°C° 0 mm 4 mps 739 mmHg 91%
    01:00 0°C° 0 mm 4 mps 738 mmHg 90%
    02:00 0°C° 0 mm 4 mps 738 mmHg 90%
    03:00 -1°C° 0 mm 4 mps 738 mmHg 89%
    04:00 -1°C° 0 mm 4 mps 737 mmHg 88%
    05:00 0°C° 0 mm 4 mps 738 mmHg 89%
    06:00 0°C° 0 mm 4 mps 738 mmHg 90%
    07:00 0°C° 0 mm 4 mps 738 mmHg 92%
    08:00 +1°C° 0.2 mm 5 mps 738 mmHg 91%
    09:00 +1°C° 0.2 mm 5 mps 738 mmHg 90%
    10:00 +1°C° 0.2 mm 5 mps 739 mmHg 89%
    11:00 +2°C° 0 mm 5 mps 739 mmHg 84%
    12:00 +2°C° 0 mm 6 mps 739 mmHg 80%
    13:00 +2°C° 0 mm 6 mps 739 mmHg 76%
    14:00 +2°C° 0 mm 5 mps 738 mmHg 77%
    15:00 +1°C° 0 mm 5 mps 738 mmHg 78%
    16:00 +1°C° 0 mm 4 mps 738 mmHg 78%
    17:00 +1°C° 0 mm 5 mps 737 mmHg 79%
    18:00 +1°C° 0 mm 6 mps 737 mmHg 79%
    19:00 -1°C° 0 mm 6 mps 736 mmHg 79%
    20:00 -1°C° 0 mm 7 mps 735 mmHg 79%
    21:00 -1°C° 0 mm 7 mps 734 mmHg 78%
    22:00 0°C° 0 mm 7 mps 733 mmHg 78%
    23:00 0°C° 0.2 mm 8 mps 731 mmHg 79%

    13 December, Friday

    Time Temperature Precipitation Wind Pressure Humidity
    00:00 +1°C° 0.2 mm 8 mps 729 mmHg 80%
    01:00 +1°C° 0.2 mm 9 mps 727 mmHg 81%
    02:00 +2°C° 0.5 mm 9 mps 725 mmHg 82%
    03:00 +2°C° 0.5 mm 9 mps 723 mmHg 84%
    04:00 +3°C° 0.5 mm 9 mps 721 mmHg 85%
    05:00 +3°C° 2.3 mm 9 mps 720 mmHg 86%
    06:00 +3°C° 2.3 mm 9 mps 719 mmHg 87%
    07:00 +3°C° 2.3 mm 10 mps 718 mmHg 89%
    08:00 +3°C° 0.2 mm 9 mps 719 mmHg 84%
    09:00 +2°C° 0.2 mm 9 mps 720 mmHg 78%
    10:00 +2°C° 0.2 mm 8 mps 720 mmHg 73%
    11:00 +2°C° 0.2 mm 9 mps 721 mmHg 71%
    12:00 +2°C° 0.2 mm 9 mps 722 mmHg 69%
    13:00 +2°C° 0.2 mm 10 mps 722 mmHg 67%
    14:00 +2°C° 0.1 mm 10 mps 723 mmHg 70%
    15:00 +1°C° 0.1 mm 9 mps 723 mmHg 73%
    16:00 +1°C° 0.1 mm 9 mps 723 mmHg 76%
    17:00 +1°C° 0.1 mm 9 mps 724 mmHg 74%
    18:00 +1°C° 0.1 mm 8 mps 724 mmHg 73%
    19:00 +1°C° 0.1 mm 8 mps 724 mmHg 72%
    20:00 +1°C° 0 mm 8 mps 724 mmHg 73%
    21:00 +1°C° 0 mm 8 mps 724 mmHg 74%
    22:00 0°C° 0 mm 7 mps 725 mmHg 75%
    23:00 0°C° 0 mm 7 mps 725 mmHg 76%
    Show more